Zurück zum Katalog

STARLINK-30964

AktivKommunikationVLEO
NORAD 58402·PAYLOAD·🇺🇸 United States

Gestartet Nov 22, 2023 von Cape Canaveral Space Force Station

Loading…

Nächste Überflüge (nächste 24 Stunden)

TLE

AktuellSource: CelesTrak SupGP

Epoche: Sep 14, 2026, 22:23 UTC

1 58402C 23180A   26257.93312500  .00067514  00000+0  24450-2 0  2574
2 58402  43.0016  63.7791 0001516 265.8548 273.1045 15.27548845    11

Verfolge STARLINK-30964 in Echtzeit mit AllMySat

Download on the App Store